This is the latest recevied weather packets stored in our database for station/object LA5PPA-1. If no packets are shown the sender has not sent any weather packets the latest 10 day(s).
| Time | Temp. | Humidity | Pressure | Rain* | Wind** | Luminosity | Snow |
|---|---|---|---|---|---|---|---|
| 1778169411 | 7.78° C | 27% | 1021.3 hPa | 0 mm | - | - | - |
| 1778169111 | 7.78° C | 27% | 1021.2 hPa | 0 mm | - | - | - |
| 1778168811 | 7.78° C | 27% | 1021.2 hPa | 0 mm | - | - | - |
| 1778168511 | 7.22° C | 27% | 1021.2 hPa | 0 mm | - | - | - |
| 1778168211 | 7.22° C | 29% | 1021.2 hPa | 0 mm | - | - | - |
| 1778167911 | 7.22° C | 26% | 1021.1 hPa | 0 mm | - | - | - |
| 1778167611 | 7.22° C | 29% | 1021.2 hPa | 0 mm | - | - | - |
| 1778167311 | 7.22° C | 28% | 1021.2 hPa | 0 mm | - | - | - |
| 1778167011 | 7.78° C | 26% | 1021.2 hPa | 0 mm | - | - | - |
| 1778166711 | 8.33° C | 28% | 1021 hPa | 0 mm | - | - | - |
| 1778166411 | 8.33° C | 25% | 1021.2 hPa | 0 mm | - | - | - |
| 1778166111 | 8.33° C | 29% | 1021.2 hPa | 0 mm | - | - | - |
| 1778165811 | 7.78° C | 30% | 1021.1 hPa | 0 mm | - | - | - |
| 1778165511 | 7.78° C | 27% | 1021.1 hPa | 0 mm | - | - | - |
| 1778165211 | 8.33° C | 29% | 1021.1 hPa | 0 mm | - | - | - |
| 1778164911 | 8.89° C | 27% | 1021.1 hPa | 0 mm | - | - | - |
| 1778164611 | 8.89° C | 29% | 1021.1 hPa | 0 mm | - | - | - |
| 1778164311 | 8.33° C | 29% | 1021.1 hPa | 0 mm | - | - | - |
| 1778164011 | 8.33° C | 28% | 1021.1 hPa | 0 mm | - | - | - |
| 1778163711 | 8.33° C | 29% | 1021.1 hPa | 0 mm | - | - | - |
| 1778163411 | 8.89° C | 30% | 1021 hPa | 0 mm | - | - | - |
| 1778163111 | 8.33° C | 31% | 1021.1 hPa | 0 mm | - | - | - |
| 1778162811 | 8.33° C | 31% | 1021 hPa | 0 mm | - | - | - |
| 1778162511 | 8.33° C | 30% | 1021 hPa | 0 mm | - | - | - |
| 1778162211 | 8.33° C | 30% | 1021 hPa | 0 mm | - | - | - |
* Rain latest hour (hover to see other rain measurements)
** Current wind speed in m/s (hover to see current wind gust speed)